Regional Weather Roundup
Issued by NWS

Home | Current Version | Previous Version | Text Only | Print | Product List | Glossary Off
Versions: 1 2 3 4 5 6 7 8 9 10 11 12 13 14 15 16 17 18 19 20 21 22 23 24 25 26 27 28 29 30 31 32 33 34 35 36 37 38 39 40 41 42 43 44 45 46 47 48 49 50

000
ASUS43 KIND 241600
RWRIN

WEATHER ROUNDUP FOR INDIANA
NATIONAL WEATHER SERVICE INDIANAPOLIS IN
1200 PM EDT SUN SEP 24 2017

NOTE: "FAIR" INDICATES FEW OR NO CLOUDS BELOW 12,000 FEET WITH NO
SIGNIFICANT WEATHER AND/OR OBSTRUCTIONS TO VISIBILITY.

* - STATION DOES NOT REPORT WEATHER SUCH AS PRECIPITATION OR FOG.

+ - STATION NOT QUALITY CONTROLLED BY THE NATIONAL WEATHER SERVICE.
    USE DATA WITH CAUTION...ESPECIALLY DEWPOINT AND RELATIVE
    HUMIDITY OBSERVATIONS.

INZ001>003-010>013-019-020-241700-
NORTHWEST INDIANA

CITY           SKY/WX    TMP DP  RH WIND       PRES   REMARKS
GARY /AIRPORT/ SUNNY     86  61  42 SE5       30.11S
KNOX *+        SUNNY     84  61  45 SW6       30.12S
LA PORTE +     SUNNY     83  62  48 CALM      30.13S

$$

LMZ046-743>745-241700-
SOUTHERN LAKE MICHIGAN

STATION/POSITION TIME  TEMP    WIND        PRES    WAVE
                       AIR SEA DIR/SP/G            HT
                 (UTC) (F)     (DEG/KT/KT) (MB)    (FT)
BURNS HARBOR     1540   83     200/  8/ 11 1019.6F
MICHIGAN CITY    1530   80     140/  9/ 11   N/A
5NW MICH CITY    1550   77 72  180/  4/  6   N/A     0

$$

INZ004-005-014>016-021>024-241700-
NORTH CENTRAL INDIANA

CITY           SKY/WX    TMP DP  RH WIND       PRES   REMARKS
GOSHEN         SUNNY     85  58  39 SE7       30.13S
SOUTH BEND     SUNNY     84  60  44 S8        30.13S
WARSAW +       SUNNY     82  61  47 S5        30.13S

$$

INZ006>009-017-018-025>027-241700-
NORTHEAST INDIANA

CITY           SKY/WX    TMP DP  RH WIND       PRES   REMARKS
FORT WAYNE     SUNNY     84  60  44 E8        30.14F
KENDALLVILLE + SUNNY     82  64  53 SE6       30.15F

$$

INZ028-029-035-036-043>045-051>053-241700-
WEST CENTRAL INDIANA

CITY           SKY/WX    TMP DP  RH WIND       PRES   REMARKS
LAFAYETTE      SUNNY     83  66  56 CALM      30.10F
TERRE HAUTE    SUNNY     86  61  42 VRB3      30.09F

$$

INZ030>032-037>040-046>048-054>057-064-065-241700-
CENTRAL INDIANA

CITY           SKY/WX    TMP DP  RH WIND       PRES   REMARKS
COLUMBUS       SUNNY     81  55  41 CALM      30.12S
GREENWOOD *+   MOSUNNY   85  64  48 CALM      30.13S
INDIANAPOLIS   SUNNY     83  60  45 E5        30.11F
-EAGLE CREEK   SUNNY     85  59  41 E5        30.11F
KOKOMO +       SUNNY     83  64  52 VRB6      30.13F
MT COMFORT *+  SUNNY     82  59  44 E3        30.13S
SHELBYVILLE    SUNNY     85  60  42 VRB3      30.11S

$$

INZ033-034-041-042-049-050-058-059-241700-
EAST CENTRAL INDIANA

CITY           SKY/WX    TMP DP  RH WIND       PRES   REMARKS
MUNCIE         SUNNY     85  60  42 VRB3      30.13F
RICHMOND +     SUNNY     81  61  50 E6        30.15S

$$

INZ060-061-067>069-081>083-085>088-241700-
SOUTHWEST INDIANA

CITY           SKY/WX    TMP DP  RH WIND       PRES   REMARKS
EVANSVILLE     SUNNY     83  66  56 SE5       30.07F
HUNTINGBURG +  SUNNY     83  69  62 CALM      30.08F

$$

INZ062-063-066-070>080-084-089>092-241700-
SOUTH CENTRAL AND SOUTHEAST INDIANA

CITY           SKY/WX    TMP DP  RH WIND       PRES   REMARKS
BLOOMINGTON    SUNNY     84  61  45 VRB5      30.10F
MADISON *+     SUNNY     81  63  54 SE3       30.13S
SEYMOUR +      SUNNY     82  63  51 E3        30.10F

$$





USA.gov is the U.S. government's official web portal to all federal, state and local government web resources and services.